Theta_e
311 311 310 310 311 311 310 310 309 308 307 304 301 302 296 296 291 301 307 311 308 302 296 301 299 293 295 302 299 302 300 300 301 297 299 297 299 298 297 297 296 298 297 297 297 298 296 297 297 299 301 302 305 306 306 307 306 307 306 306 307 313 302 300 300 305 307 307 306 306 305 306 304 305 307 306 303 305 304 303 309 302 304 301 301 299 304
310 311 311 310 311 310 310 309 309 308 308 305 303 297 295 296 296 299 309 311 307 300 293 294 296 298 300 299 297 302 301 301 301 299 299 298 297 297 297 298 300 298 300 299 296 300 293 299 298 298 303 301 308 307 306 307 306 306 306 305 310 301 309 302 298 297 299 301 304 304 305 305 303 303 305 306 306 307 307 310 311 303 305 303 301 295 302
310 310 310 310 310 310 309 309 309 309 309 308 303 295 296 296 300 299 303 311 307 298 299 296 295 296 296 297 297 299 301 303 300 299 300 304 302 300 299 301 300 299 301 299 300 301 298 296 302 301 303 303 307 306 306 307 307 309 311 322 311 305 305 301 295 292 290 290 292 294 299 301 304 305 304 305 305 305 305 301 305 297 308 308 301 301 312
310 310 310 310 310 310 309 309 309 309 309 308 304 298 296 295 289 295 302 306 304 304 303 299 296 295 296 296 298 300 298 301 304 304 302 303 304 303 303 304 303 302 300 297 297 297 301 298 299 303 302 304 308 311 311 309 312 318 320 319 311 308 310 305 303 299 297 300 304 309 307 304 300 302 303 303 304 306 306 310 303 298 305 303 305 309 308
310 310 310 310 310 309 308 308 309 309 308 308 303 300 297 298 291 297 293 300 300 299 300 298 297 293 297 292 298 297 299 301 302 307 300 305 305 304 304 304 301 301 301 300 299 300 299 301 300 299 301 304 306 312 312 313 316 326 327 329 312 312 304 305 307 307 306 305 306 307 306 303 303 302 302 304 304 305 304 303 301 316 304 298 308 315 309
310 311 311 310 309 309 308 309 309 308 307 307 305 296 300 291 296 299 301 292 290 293 295 298 295 297 299 295 299 296 296 298 297 303 305 303 305 302 303 303 304 304 302 303 299 301 300 301 299 302 303 303 304 304 309 310 319 319 313 321 309 305 301 304 304 304 305 306 306 306 305 305 305 304 304 303 304 305 303 306 308 312 303 300 310 314 313
311 311 311 310 309 309 309 309 308 308 307 306 302 294 298 299 299 298 301 293 296 296 296 297 297 297 297 296 296 295 296 296 300 299 300 302 302 303 299 301 302 303 304 301 299 303 298 298 303 302 302 303 303 302 306 312 312 313 313 312 316 308 302 306 304 302 303 304 305 305 304 304 304 304 304 305 304 304 305 306 308 309 311 310 314 316 313
309 309 310 309 309 309 309 308 308 308 305 305 298 299 293 292 292 291 297 296 294 295 296 297 297 293 297 293 295 299 298 297 298 300 298 297 300 304 301 303 305 304 305 307 303 303 302 302 300 308 304 305 309 304 307 307 311 312 310 310 313 307 305 311 304 302 301 303 304 304 303 303 302 304 305 305 305 305 305 306 307 310 309 311 311 316 315
310 309 310 309 309 309 309 309 308 307 306 301 298 295 299 297 298 297 292 289 292 296 297 295 293 292 293 292 294 295 297 295 296 296 300 299 299 303 302 300 300 303 304 306 306 308 305 305 306 308 308 304 311 306 308 309 309 311 310 311 312 310 308 305 306 301 300 303 303 303 303 303 302 302 304 304 303 302 303 304 309 307 307 310 309 308 309
309 308 310 310 308 308 308 308 308 306 306 301 299 294 300 299 300 300 296 289 294 291 293 294 293 289 294 296 295 293 293 295 297 295 301 302 302 302 300 299 298 299 302 303 307 305 304 305 307 308 310 310 309 310 310 310 309 312 310 311 309 311 307 305 303 300 301 305 304 303 302 301 298 300 303 305 304 306 306 306 310 308 309 308 306 306 315
309 309 309 310 309 309 308 308 309 307 306 301 298 297 298 295 293 295 296 288 291 292 292 292 291 292 295 295 294 295 294 295 296 293 296 300 300 303 301 299 297 297 299 305 308 307 306 306 307 309 309 308 308 309 311 312 311 311 313 312 310 312 308 306 307 300 302 305 302 302 299 292 295 306 308 307 305 305 304 304 306 309 312 311 314 315 318
309 308 310 309 309 309 308 308 308 307 306 307 305 299 301 301 299 296 292 287 288 292 291 289 291 293 293 294 294 294 293 294 294 298 294 297 299 301 300 299 299 298 307 308 306 305 307 310 308 309 308 308 308 309 310 309 311 315 313 310 310 307 308 306 308 302 301 303 302 298 293 296 309 315 314 309 308 308 306 307 308 309 312 314 315 317 321
309 309 309 308 308 309 308 308 308 308 307 307 305 299 302 303 299 294 292 289 286 289 288 289 293 294 295 295 294 295 296 297 298 298 298 297 297 299 300 299 300 304 307 304 304 305 306 307 310 309 307 307 307 308 309 310 310 312 312 312 310 306 305 306 305 305 304 301 300 292 295 308 312 311 313 313 310 309 308 306 311 315 311 314 312 316 318
309 309 309 309 308 308 309 308 307 306 306 306 304 303 303 302 297 294 292 288 287 291 292 291 292 292 293 294 295 295 296 295 297 298 296 299 297 298 300 302 304 305 304 305 304 306 306 308 308 306 306 308 308 306 310 311 312 311 312 311 310 310 308 307 303 308 299 302 300 299 309 306 308 308 311 312 310 306 305 302 306 315 316 315 315 317 321
309 308 308 309 309 307 307 307 307 307 307 306 306 304 304 303 300 297 296 293 286 290 291 286 291 293 294 294 295 294 293 294 294 295 298 299 297 299 301 304 305 303 304 302 308 309 306 309 300 300 303 301 297 300 308 306 313 311 314 314 313 315 307 310 303 301 304 301 298 300 299 296 305 311 315 316 314 316 316 314 311 318 319 318 317 319 320
308 308 308 308 307 308 308 307 308 307 306 305 305 303 303 305 304 302 298 294 291 284 290 294 295 294 294 294 295 293 291 292 294 294 295 298 298 300 302 303 302 303 306 305 309 306 305 301 301 299 298 300 304 302 300 307 305 311 315 314 311 311 313 314 306 303 303 302 297 297 296 300 313 312 314 316 317 316 316 309 305 319 319 319 319 318 321
308 308 307 308 308 307 308 308 308 307 307 306 303 303 302 306 303 300 297 295 292 287 294 295 295 295 293 291 294 293 295 293 295 291 290 293 295 297 300 300 303 308 309 310 310 306 302 301 302 302 303 306 301 300 305 304 303 304 311 312 312 311 310 308 304 303 303 301 298 297 303 303 311 313 315 316 318 315 312 300 302 319 319 320 320 319 320
309 309 308 308 307 307 308 307 307 308 306 306 304 303 302 306 306 303 298 295 291 290 294 296 294 292 292 294 293 297 298 297 296 296 293 295 297 297 296 297 298 306 311 309 308 305 302 301 299 298 298 305 306 305 299 304 301 303 303 308 306 307 310 308 301 302 303 300 301 304 306 314 314 313 315 316 317 313 304 297 311 319 321 320 319 319 320
308 308 308 307 306 306 307 308 308 307 307 306 307 303 302 306 306 303 299 295 293 288 295 300 300 295 296 298 298 299 299 297 295 291 291 292 296 297 298 298 301 298 305 305 307 303 301 301 304 302 301 303 306 300 306 302 302 309 308 305 306 306 308 305 304 302 301 303 299 300 306 311 312 315 315 318 310 302 303 315 316 319 318 319 319 318 319
307 307 308 308 307 307 307 307 307 307 307 306 305 301 304 306 306 304 299 294 295 291 294 296 297 295 298 296 295 293 295 296 296 293 291 289 298 297 295 298 304 298 304 306 303 306 302 299 302 304 302 303 306 307 305 306 312 308 306 309 304 305 301 301 302 307 305 303 300 297 293 311 315 313 316 318 309 314 315 318 320 320 322 322 324 324 326
308 307 307 307 306 307 307 307 307 307 307 307 306 301 300 306 306 306 305 300 295 290 292 299 300 299 299 298 300 299 297 294 296 294 296 295 299 294 286 293 294 293 296 301 296 301 303 300 303 302 305 304 307 306 303 305 307 312 309 309 310 310 300 302 307 311 304 302 299 297 309 312 315 313 309 316 318 319 321 322 320 325 326 326 327 329 331
308 307 307 307 307 307 306 307 308 307 307 306 305 303 299 303 305 305 305 304 297 293 295 299 301 299 300 301 301 301 299 298 299 302 297 293 298 295 295 296 295 297 300 308 304 303 304 305 306 303 302 303 307 303 305 303 302 307 312 311 302 311 308 308 300 310 307 305 311 313 315 315 316 315 315 320 324 326 326 326 325 325 325 329 327 327 329
307 307 307 307 307 306 307 307 307 308 306 307 306 303 300 303 303 306 305 298 300 300 302 300 301 301 303 303 304 303 303 303 302 301 300 295 293 296 295 295 295 299 301 311 305 304 304 301 302 305 304 305 305 302 304 306 303 304 304 308 308 313 313 314 314 308 315 313 314 316 316 316 314 316 315 315 317 319 321 321 319 320 322 325 325 326 327
307 307 307 306 307 307 307 307 307 307 307 307 306 304 302 303 304 304 302 299 295 292 296 298 296 293 295 296 301 305 307 305 305 304 305 302 293 294 299 299 300 300 304 305 313 304 305 306 305 307 300 306 307 303 302 301 302 304 306 307 308 311 311 310 309 312 306 300 316 312 312 315 314 313 315 316 316 316 318 319 320 320 320 320 322 322 323
307 306 306 307 307 307 307 307 307 307 306 306 307 307 305 303 304 303 298 292 292 291 286 291 294 298 300 302 303 302 304 306 308 308 305 304 300 296 296 302 303 300 300 302 308 305 309 301 305 304 299 309 307 294 304 302 302 307 303 305 308 309 313 309 310 310 309 307 312 315 315 315 317 315 314 314 316 317 318 319 321 321 322 322 324 325 324
306 306 306 306 307 307 306 307 307 306 307 307 307 304 302 301 305 306 302 300 298 294 287 286 291 302 303 301 299 302 306 306 305 305 306 305 304 303 302 303 304 307 304 303 303 300 300 301 304 306 303 306 312 303 300 306 307 309 305 305 309 308 312 306 308 308 309 312 313 313 314 315 317 316 316 316 317 317 317 318 318 320 320 320 320 321 322
306 306 306 306 306 307 306 306 307 306 306 306 305 305 304 304 306 303 300 298 293 289 290 287 292 296 299 296 301 304 305 305 304 303 304 306 305 305 304 302 301 302 301 301 303 301 303 302 303 303 308 308 312 309 310 307 308 307 306 307 309 308 305 306 307 306 305 307 308 312 306 305 314 316 316 316 316 317 317 316 316 317 317 317 316 317 320
307 307 306 306 306 306 306 306 306 306 306 306 306 306 306 304 305 305 306 303 296 288 289 289 290 293 299 297 303 304 305 305 304 303 303 303 304 305 303 302 301 299 300 299 298 298 300 297 298 307 311 313 308 306 310 313 309 307 306 307 308 306 306 305 304 306 305 311 313 313 312 313 313 316 315 315 317 317 316 316 315 315 316 317 316 315 316
306 306 306 306 306 306 306 306 306 306 306 306 307 305 304 306 307 307 306 306 303 296 293 292 295 295 291 296 302 302 304 304 303 303 303 303 303 303 303 302 301 301 301 301 299 299 297 298 301 300 303 313 309 307 308 302 301 297 303 307 309 310 312 310 310 310 309 310 311 312 313 309 311 315 316 316 315 315 312 312 314 317 317 317 317 318 316
306 306 306 306 306 306 306 306 306 306 305 306 303 300 295 299 304 304 306 305 303 300 291 290 287 292 300 300 299 302 302 304 303 303 302 302 302 303 303 303 302 303 302 300 299 295 299 300 302 304 307 314 307 310 304 305 301 303 308 311 312 313 313 314 314 312 308 310 312 313 312 312 314 314 315 317 319 319 314 313 314 314 315 317 318 317 320
306 306 306 306 306 306 305 305 306 306 305 303 299 293 290 289 298 306 305 305 304 299 295 294 290 296 295 301 301 300 302 303 304 303 302 302 304 304 306 305 305 304 300 300 299 299 303 298 299 302 307 309 311 306 304 303 301 302 306 310 310 312 311 311 313 315 314 312 312 313 313 313 314 313 312 313 314 314 313 314 316 318 316 316 317 317 317
305 306 305 305 306 306 306 306 306 306 305 302 297 294 296 299 303 307 306 305 305 298 293 289 290 291 292 296 300 303 302 304 304 307 304 304 302 304 305 304 302 304 303 300 301 302 300 303 301 303 304 306 309 304 305 302 299 299 307 310 311 312 313 311 312 315 317 317 315 310 310 310 312 312 311 315 315 316 315 315 314 316 317 315 315 316 316
306 306 304 305 306 306 306 306 306 306 305 305 306 306 306 306 306 306 306 306 302 297 296 292 288 290 289 295 298 302 304 304 303 304 301 305 300 302 300 303 304 302 307 302 299 298 303 302 305 303 307 313 307 304 302 299 301 306 308 309 311 311 312 313 313 315 315 315 315 311 308 309 310 312 314 314 314 314 316 315 315 316 316 314 313 314 316
306 306 306 306 306 307 306 306 307 306 305 302 298 299 303 306 306 306 307 304 299 299 298 292 288 288 289 298 295 301 305 300 301 303 299 305 305 300 300 299 303 299 304 299 302 303 303 304 304 306 309 306 309 304 298 301 306 306 308 308 310 311 312 311 310 310 313 313 313 313 312 313 314 314 313 312 312 312 314 316 316 315 313 313 312 313 314
306 306 306 306 306 307 307 306 305 303 299 299 299 303 304 305 306 308 306 301 293 292 293 293 293 288 288 292 293 299 305 302 298 302 300 302 309 300 301 298 298 296 299 305 301 302 303 305 308 306 301 306 303 298 300 302 305 306 307 307 309 310 311 308 307 310 311 312 311 310 311 311 309 308 309 311 310 311 311 312 314 315 313 314 314 313 314
306 307 306 307 306 306 305 304 303 299 297 297 300 305 308 309 309 309 307 306 301 294 292 292 293 289 290 286 289 298 304 300 302 302 300 304 301 306 302 299 294 297 306 300 301 306 304 309 308 300 305 300 296 300 302 305 305 306 306 306 308 309 308 308 307 308 309 309 309 309 309 310 309 308 308 308 310 310 312 312 312 313 313 313 313 315 315
307 306 305 304 304 303 299 299 304 301 300 303 305 308 310 309 306 307 304 302 304 304 295 293 290 290 292 290 294 298 300 295 302 299 300 299 299 302 300 299 295 301 305 304 304 303 306 313 305 300 300 298 300 306 307 307 307 306 306 307 309 309 309 309 309 308 307 308 308 308 309 308 308 308 309 309 310 311 311 310 312 313 313 313 314 314 314
305 303 303 301 299 296 296 298 301 305 308 308 308 306 305 304 298 299 299 296 300 301 297 295 290 293 296 292 289 299 297 295 301 296 299 302 300 298 303 299 298 303 297 300 303 310 308 306 302 299 299 305 307 307 308 309 309 310 309 309 308 308 309 310 310 309 307 306 306 307 308 308 308 309 310 309 310 309 310 311 312 314 314 314 314 315 314
300 302 300 299 296 295 295 300 308 308 306 308 306 300 298 301 296 293 294 297 298 293 296 293 291 291 290 290 293 300 296 294 295 300 295 302 300 295 300 295 300 303 295 298 302 310 299 300 300 300 298 303 304 307 310 310 310 310 310 310 309 309 310 309 310 309 309 309 308 308 309 309 308 307 309 310 310 310 311 312 312 313 314 315 315 315 314
301 297 295 295 296 298 305 307 307 305 305 299 300 297 292 298 292 288 297 291 290 294 295 290 296 295 292 292 292 294 302 297 296 296 299 301 305 298 302 301 302 301 292 296 299 307 300 295 299 298 296 302 303 308 309 309 309 310 311 311 311 310 311 310 309 310 310 310 310 309 310 310 311 310 310 310 310 310 311 313 314 314 314 315 316 316 315
299 298 297 296 299 302 302 304 305 304 299 295 294 294 292 288 294 295 293 289 290 292 298 296 298 294 295 295 295 290 301 305 305 305 302 298 305 304 300 296 304 298 294 295 303 306 302 298 298 296 297 303 305 308 310 310 310 311 311 312 311 311 311 311 311 311 311 310 310 311 311 312 312 312 312 312 312 312 313 314 314 315 315 315 315 315 317
302 300 302 303 303 302 302 302 302 299 296 297 290 286 288 290 294 292 294 288 290 294 297 298 296 297 295 296 295 296 299 304 303 303 301 297 302 301 298 299 301 296 292 299 303 302 301 295 294 295 300 304 306 309 309 309 310 310 311 312 312 312 312 312 312 312 313 313 313 313 314 314 314 314 314 314 314 314 315 315 315 315 315 317 317 317 317
305 305 304 299 299 298 299 292 296 296 287 286 283 282 287 285 288 288 290 295 298 296 296 304 303 305 303 303 301 302 302 306 301 301 300 298 304 303 298 294 297 291 296 298 297 299 295 294 294 297 303 305 308 308 309 310 310 311 311 312 312 313 313 313 313 313 313 314 314 314 314 315 315 315 315 316 315 315 316 317 317 316 317 318 318 317 316
306 302 297 296 293 295 297 284 294 293 286 284 283 282 285 286 289 290 290 293 296 296 299 298 299 297 295 302 300 300 302 303 304 303 301 304 299 295 295 291 294 299 302 293 295 292 294 297 298 301 304 306 308 308 308 309 310 311 311 311 312 313 314 314 314 314 314 315 315 316 316 316 316 317 317 317 315 315 316 316 317 318 319 319 318 317 318
297 292 289 289 288 291 289 283 291 287 284 286 288 286 288 284 287 288 289 296 298 295 300 301 299 298 297 302 304 303 302 301 305 299 293 298 295 295 294 293 298 298 291 289 293 294 295 294 300 301 301 302 306 308 309 310 311 311 311 311 312 313 313 313 314 314 314 314 315 315 315 315 316 315 316 316 316 316 316 315 316 318 317 317 317 317 318
292 288 288 285 282 287 287 285 286 285 289 292 290 292 289 290 291 290 296 299 298 299 298 299 299 299 298 303 300 297 302 302 298 296 297 296 294 290 296 300 301 292 290 290 289 288 290 296 298 300 304 305 307 309 309 311 311 312 312 310 311 313 313 314 314 315 315 315 315 316 315 315 315 315 315 316 317 316 317 318 318 317 317 316 315 315 317
292 294 289 288 284 287 292 285 286 289 291 292 294 295 293 293 294 294 296 299 297 298 299 301 299 299 299 298 298 299 299 301 296 297 300 293 292 295 300 295 289 289 287 286 288 291 294 299 302 304 307 308 309 309 310 310 311 312 312 312 313 313 313 314 314 314 315 316 316 316 316 316 317 316 317 316 317 317 318 318 318 317 317 315 316 316 317
289 292 291 285 283 286 286 289 293 292 295 293 292 295 296 297 295 297 302 301 299 300 300 301 300 300 299 303 301 295 296 298 295 294 297 295 297 294 289 291 290 292 292 290 291 295 298 302 305 307 307 309 309 310 310 311 312 312 312 312 313 313 313 313 314 315 316 316 316 316 317 318 317 317 316 316 316 317 317 318 319 319 318 317 317 317 317
295 288 287 286 288 287 289 292 289 288 292 296 295 295 294 296 298 300 301 302 301 301 302 301 300 301 294 297 296 297 292 295 293 289 295 294 290 286 288 285 288 288 294 297 295 299 302 304 307 307 307 309 310 311 311 312 313 312 312 312 312 312 313 314 314 315 316 316 317 317 317 318 318 318 317 317 316 316 318 320 320 320 319 318 317 317 317
288 287 291 288 291 291 291 292 289 287 294 294 293 296 299 299 298 301 303 301 302 302 302 301 302 295 293 296 290 290 290 293 296 292 293 290 291 293 293 288 291 292 294 300 300 303 306 307 308 308 309 309 311 311 311 312 313 313 313 313 313 314 314 313 314 315 316 316 317 317 318 318 317 317 317 316 316 318 319 319 320 320 321 320 319 319 319
292 288 290 296 291 291 292 290 290 290 292 294 295 296 297 298 298 299 303 301 302 301 301 296 294 293 292 290 289 288 289 298 297 294 293 292 296 295 292 291 294 298 300 303 304 306 307 308 308 309 310 311 312 312 312 312 313 313 313 313 314 314 315 315 314 314 315 316 317 317 317 317 317 318 319 319 318 319 319 319 320 320 321 322 321 320 320
290 290 292 295 295 296 296 297 298 297 297 298 298 299 300 298 300 301 304 303 303 299 296 298 296 293 289 288 290 293 297 296 293 296 294 296 300 295 294 296 298 300 302 304 305 307 308 309 310 310 310 310 311 312 312 313 314 314 314 313 314 314 315 315 315 315 315 316 317 318 318 318 318 318 318 319 319 318 317 317 319 320 321 322 322 321 321
Wind_Speed
17 18 18 18 17 14 14 13 14 15 15 12 11 9 4 3 7 10 10 7 3 4 4 3 4 7 5 5 9 6 7 4 1 5 3 6 5 4 7 6 8 9 9 7 9 9 8 8 9 7 9 13 12 4 5 5 3 3 4 8 8 6 5 6 10 8 3 1 4 1 2 8 13 16 15 13 17 16 14 10 6 9 6 6 4 8 5
18 18 18 19 16 13 13 12 12 13 12 9 10 8 5 5 8 6 2 1 5 3 4 2 5 6 7 9 11 7 7 4 4 6 4 5 4 5 5 4 11 7 10 9 10 9 8 8 13 10 8 7 6 11 11 4 4 6 5 6 8 8 2 8 6 6 6 10 7 6 1 4 9 9 12 15 15 15 9 4 3 10 11 12 7 13 6
18 17 17 16 15 13 12 11 12 12 11 8 8 6 6 8 6 7 5 2 5 3 1 3 4 4 6 6 6 7 7 7 13 11 9 5 6 2 4 7 4 7 7 10 9 10 13 7 8 12 4 6 1 5 9 7 7 10 8 6 8 8 7 10 11 12 13 12 14 16 12 10 4 3 6 9 18 17 6 11 4 9 6 13 11 10 4
17 17 16 15 15 13 10 10 11 11 11 8 7 6 4 3 6 4 3 1 4 6 2 2 4 4 6 6 5 5 9 7 8 10 12 11 9 10 6 4 5 9 7 9 10 11 10 12 3 4 6 6 3 2 2 6 8 10 12 9 9 3 4 10 11 12 13 11 7 2 4 5 12 9 11 10 13 11 13 4 10 12 5 9 8 8 6
16 16 16 15 15 11 9 9 10 10 10 7 6 5 3 4 3 4 4 7 3 1 1 2 4 5 6 3 4 5 5 5 7 9 9 10 12 7 10 8 8 7 11 12 11 12 12 14 15 14 12 5 3 3 4 5 8 11 9 10 7 2 5 12 15 15 14 15 15 11 15 15 13 15 15 16 15 15 17 13 12 7 7 12 9 8 12
14 14 15 14 12 10 9 8 9 9 8 9 3 4 3 2 2 2 3 2 4 7 1 7 10 8 4 5 4 8 9 7 6 2 5 3 6 8 6 11 13 10 11 7 9 9 11 10 13 8 9 11 11 12 6 8 2 5 5 7 9 7 9 12 14 17 18 18 18 13 11 17 15 17 16 17 18 17 20 16 12 12 12 13 8 10 11
16 16 15 15 11 10 9 7 8 7 8 6 3 3 4 4 5 5 6 3 4 5 10 13 9 10 5 5 6 9 10 10 4 3 5 4 4 11 7 9 9 8 6 4 7 3 7 8 7 8 7 11 8 7 6 6 3 2 4 5 1 3 8 6 11 15 16 16 17 11 14 12 15 17 17 17 19 20 21 19 16 15 11 12 10 14 16
18 18 16 15 12 10 8 7 7 5 6 4 4 2 4 3 3 3 5 4 8 10 7 5 6 7 6 5 6 6 6 6 8 5 2 4 3 3 9 4 4 5 4 5 6 9 11 7 7 3 9 7 5 7 7 2 3 2 4 1 1 4 1 1 7 9 14 16 15 12 14 15 17 15 14 16 17 18 20 20 18 16 15 10 7 10 11
16 17 17 16 14 9 8 7 7 4 3 3 1 2 1 3 3 5 6 8 6 7 5 5 5 6 5 5 5 4 3 4 9 10 8 11 6 1 2 7 8 3 5 5 9 4 4 5 8 9 6 8 1 5 2 3 2 2 3 3 4 4 2 2 2 6 8 8 10 13 15 17 19 20 19 14 12 14 10 10 4 9 9 9 8 7 7
18 18 16 15 15 13 8 7 7 4 2 3 3 3 0 3 4 4 5 6 6 7 7 7 5 5 3 2 4 4 6 8 10 8 5 8 11 10 6 7 8 8 4 7 3 2 8 10 11 10 9 10 11 7 7 4 2 2 3 1 5 3 3 2 1 5 6 3 6 10 12 9 12 17 18 17 13 11 11 12 11 15 14 11 10 10 7
18 17 16 15 14 14 14 10 8 6 3 5 4 4 2 2 3 3 3 7 6 5 5 6 6 5 4 5 10 9 10 8 7 5 5 6 3 4 11 11 7 7 8 4 6 9 11 13 14 10 10 13 13 9 8 9 7 5 2 4 3 5 5 4 0 4 6 4 3 4 4 10 10 10 17 18 18 17 14 12 12 12 11 7 9 9 11
18 18 16 15 14 12 12 13 9 4 6 5 4 5 3 2 3 3 4 6 7 5 5 7 6 7 10 12 8 11 13 12 9 7 13 13 16 14 10 9 6 5 3 12 13 11 14 12 7 6 9 11 12 11 10 10 8 6 5 7 3 5 5 4 1 4 5 2 3 4 9 10 6 1 1 13 20 19 21 18 18 17 15 10 5 7 7
18 16 16 16 15 12 11 13 12 9 8 5 4 5 4 4 2 3 4 6 8 5 6 7 7 10 11 13 13 11 10 11 12 13 13 15 17 9 5 5 8 9 14 15 14 10 6 5 4 4 7 7 8 8 10 11 12 11 5 5 6 5 9 5 3 2 2 2 3 4 4 4 6 3 2 3 0 5 10 15 8 6 13 14 14 13 13
17 16 16 15 16 14 13 12 12 5 6 7 6 6 4 5 4 4 4 4 7 6 7 10 11 12 12 8 7 11 11 12 11 10 10 6 11 11 9 6 6 11 12 10 8 4 3 1 3 5 5 5 4 4 8 11 9 12 12 6 7 5 6 4 5 3 5 1 3 8 6 8 4 3 4 4 6 10 14 12 13 15 12 13 13 14 8
17 17 16 16 15 16 12 13 13 8 6 7 6 5 5 6 5 4 3 4 9 9 8 7 2 5 7 10 10 10 9 9 9 7 10 11 10 4 5 9 11 13 10 5 2 3 2 2 4 4 4 6 7 5 4 6 3 7 8 9 6 4 6 3 2 1 2 4 6 5 6 9 6 3 1 3 5 7 8 4 6 4 8 11 12 12 10
18 18 17 15 16 15 12 15 12 8 5 7 6 6 6 6 6 5 4 5 5 8 7 9 8 8 7 7 8 10 10 9 8 9 9 4 4 10 10 10 14 11 6 5 2 1 2 5 3 3 5 7 3 2 5 4 3 1 7 13 12 4 2 3 4 4 3 4 4 4 7 6 4 4 7 7 6 7 5 4 10 6 11 11 12 12 9
16 17 17 15 13 15 15 13 10 9 8 9 6 6 6 7 7 6 6 6 6 11 10 15 13 12 10 10 8 7 5 6 7 6 6 6 10 13 13 14 10 4 6 4 1 2 3 5 4 5 4 2 5 3 4 3 5 5 7 10 9 8 1 4 6 7 2 3 4 7 3 4 4 8 10 12 9 2 4 9 8 9 9 9 11 11 10
15 15 16 14 14 15 13 13 12 10 7 10 8 5 5 7 8 6 5 6 7 10 11 13 14 11 8 7 8 6 5 5 6 6 6 9 9 6 11 10 8 4 8 2 1 2 2 4 5 5 8 2 2 2 6 5 7 9 9 9 5 5 3 2 5 6 1 2 5 3 5 1 6 11 16 14 6 4 8 10 2 4 2 6 7 8 8
15 15 15 14 14 14 13 12 12 12 10 9 7 5 7 6 7 8 5 6 6 9 5 6 10 12 12 9 9 7 6 8 8 7 8 8 1 10 14 7 4 6 6 3 2 1 1 2 2 2 4 3 3 3 2 4 4 1 5 5 5 5 6 3 2 4 6 2 5 7 6 3 9 15 15 8 3 8 10 2 3 6 2 2 4 6 7
14 14 13 13 13 12 12 12 12 12 12 9 7 6 1 5 7 9 7 7 7 11 10 10 9 15 10 10 10 10 9 9 6 7 6 7 7 16 8 4 2 6 5 5 1 1 1 2 1 2 4 1 0 2 2 1 3 2 2 6 7 7 8 5 2 3 2 2 4 5 6 3 15 19 9 3 5 2 1 2 6 4 6 8 9 8 6
14 12 13 14 14 13 12 11 10 9 9 8 9 6 6 5 7 8 9 7 5 10 11 8 11 13 11 12 12 11 10 11 8 7 5 6 7 5 4 1 5 5 4 4 3 3 3 1 2 3 1 2 2 3 1 2 1 4 3 2 1 8 7 2 4 5 2 1 2 2 4 9 12 10 5 8 8 7 4 0 6 6 6 9 10 10 10
13 12 11 12 13 12 11 11 10 9 9 7 8 5 6 4 5 6 8 6 8 12 11 10 10 12 14 14 14 15 16 17 17 11 10 11 5 5 8 11 9 3 3 3 3 2 2 2 2 2 2 2 1 1 3 2 3 5 3 1 4 7 3 4 7 6 5 5 1 5 5 7 8 8 7 7 8 4 4 7 7 8 8 6 10 11 10
13 13 12 11 11 11 10 10 10 9 7 8 7 5 6 3 4 5 5 6 8 10 10 11 10 12 13 16 18 17 17 16 17 16 14 10 11 8 9 9 8 5 4 3 2 2 1 3 3 4 2 2 4 2 1 3 2 5 4 5 2 6 3 1 3 4 4 6 4 5 4 7 10 9 9 9 8 8 4 7 12 10 10 10 11 11 13
12 11 12 10 10 9 9 8 9 9 9 5 6 5 6 5 4 4 4 5 5 8 10 11 8 8 8 11 8 9 12 14 15 15 12 11 11 8 5 9 5 4 3 2 2 3 2 2 3 3 2 2 3 4 1 2 4 3 3 3 4 4 11 7 1 5 7 3 4 2 5 6 9 9 9 9 9 7 6 9 9 8 10 13 13 12 12
11 11 10 10 10 8 8 8 8 8 7 9 9 6 4 4 5 4 3 5 4 4 9 8 10 12 13 13 11 12 11 10 9 12 12 14 15 10 7 2 8 3 4 6 3 3 1 3 2 1 2 1 1 3 5 1 3 3 3 4 5 1 11 6 2 8 2 3 12 9 6 9 5 5 7 8 9 10 9 9 10 11 12 12 11 13 14
12 11 9 8 8 7 7 7 7 7 8 9 8 4 4 6 3 4 4 4 3 3 7 10 6 1 4 9 12 10 8 8 10 12 15 17 17 17 15 9 10 4 5 6 5 4 3 3 3 3 3 3 1 1 2 5 1 2 3 4 4 8 8 3 6 3 0 5 3 9 16 7 6 6 7 7 8 8 10 12 14 14 15 15 16 14 12
10 10 9 7 7 6 5 7 6 6 5 6 5 4 6 5 5 6 5 3 4 7 7 10 10 9 7 14 16 12 12 12 12 13 14 15 16 14 13 12 11 8 6 7 4 4 3 3 2 3 3 3 1 1 2 3 1 2 1 3 8 5 2 7 4 4 4 6 8 11 14 7 4 2 2 7 8 9 10 13 16 15 13 13 16 15 15
8 7 6 6 6 6 5 5 5 6 7 8 6 5 6 7 7 9 8 7 7 8 8 10 10 12 14 19 12 6 8 9 10 11 12 13 14 13 13 13 9 7 6 3 3 2 1 3 3 1 1 1 3 2 1 2 1 3 2 5 7 5 5 4 3 2 1 4 7 4 7 3 7 10 4 3 8 9 11 11 13 13 12 11 14 15 15
6 6 5 5 5 5 5 4 5 5 7 5 4 5 7 10 10 10 10 8 8 7 8 11 11 11 7 7 12 11 9 7 9 11 10 11 13 13 13 12 10 8 5 5 5 4 4 5 4 5 3 1 3 2 3 1 2 4 6 8 6 4 3 5 7 8 5 5 7 9 5 6 5 5 7 3 6 10 12 11 11 12 10 11 11 10 11
5 5 4 4 5 5 5 5 6 6 1 0 1 3 4 0 2 4 9 9 8 6 5 6 7 5 6 7 9 7 7 6 7 9 11 10 10 11 11 11 9 8 5 4 1 4 2 3 4 3 2 1 2 1 1 3 4 3 8 8 7 4 8 7 4 0 2 5 11 12 13 12 10 11 8 6 9 11 9 9 9 11 11 10 10 9 9
5 4 4 4 4 3 3 4 5 2 3 0 0 3 2 2 3 3 5 7 7 5 4 3 8 8 9 5 7 10 9 6 6 7 10 10 10 10 8 6 4 6 5 4 2 4 1 3 3 1 1 2 1 2 3 2 3 3 9 9 7 6 9 10 9 6 3 7 12 13 12 10 7 12 13 11 9 9 9 7 8 8 8 10 9 8 8
5 4 3 4 5 4 5 5 7 4 2 3 3 3 1 1 3 3 3 5 3 3 3 6 7 5 7 6 4 6 8 7 4 4 3 6 5 6 6 8 6 8 5 3 2 1 3 3 3 3 3 3 2 4 3 5 6 4 7 7 7 6 7 8 9 8 6 7 10 15 15 14 12 11 6 8 9 9 8 7 5 4 8 9 7 9 10
6 4 4 5 6 5 5 3 3 3 4 4 7 11 15 16 13 8 6 5 4 3 2 3 5 6 5 6 9 6 2 1 3 3 3 5 4 6 5 6 3 2 5 3 1 2 1 1 2 1 4 3 2 4 7 7 5 4 5 6 6 7 6 8 9 9 9 10 10 10 7 7 7 8 7 7 8 8 7 7 5 2 4 6 8 8 8
6 6 5 4 4 5 5 4 4 3 2 2 4 2 2 6 6 8 6 4 2 2 2 3 4 6 7 7 5 1 4 3 1 3 3 3 3 5 4 4 3 3 4 4 0 2 1 1 1 2 1 5 3 3 5 6 5 5 5 5 5 7 7 10 10 8 9 10 11 10 8 7 8 7 10 12 11 10 9 7 8 8 8 7 8 8 8
6 5 5 6 6 6 7 6 3 2 3 2 4 5 3 5 5 4 9 6 3 2 2 3 3 6 6 5 3 1 5 4 2 3 2 3 2 3 3 2 2 3 2 1 0 1 1 3 2 1 5 3 4 6 5 5 6 6 5 5 6 5 7 9 8 6 7 7 7 8 10 10 10 8 5 5 5 5 6 6 5 5 8 8 8 10 10
7 7 8 8 8 5 3 2 3 2 2 3 3 1 5 3 3 7 6 2 3 2 3 3 3 5 4 5 5 3 7 4 2 1 1 2 3 1 1 3 3 1 1 2 1 1 2 2 2 5 3 5 6 4 5 4 6 7 7 6 5 5 6 6 5 6 6 7 7 7 8 7 5 3 2 0 2 4 3 2 4 6 6 6 7 7 7
8 8 8 6 3 2 2 1 1 3 2 3 6 10 12 3 4 3 3 3 3 3 4 4 6 6 2 5 4 4 6 3 4 1 2 3 3 2 3 2 3 3 2 3 3 4 5 4 5 9 7 5 5 6 6 6 7 7 7 6 3 5 7 7 5 3 3 5 4 3 3 5 3 3 2 2 2 2 4 6 5 6 7 6 5 6 6
7 5 3 1 1 1 1 1 1 2 8 11 10 4 2 2 2 2 2 2 2 3 3 3 7 3 2 3 5 2 4 3 2 1 2 0 3 3 1 1 3 2 5 5 5 2 3 4 6 9 7 7 7 8 7 8 7 7 6 6 6 5 4 5 4 4 5 5 4 4 4 3 4 3 3 4 4 5 3 2 3 4 5 5 5 4 4
2 1 1 2 1 2 2 2 3 11 8 3 1 2 1 2 1 2 2 2 1 3 3 4 4 2 2 5 7 4 3 4 4 2 2 1 1 4 2 4 2 1 1 2 4 3 3 6 6 6 6 5 7 8 7 8 7 7 7 7 6 5 5 5 3 1 2 2 2 1 1 2 4 3 1 3 3 2 2 3 4 4 4 4 3 3 3
2 4 3 4 1 2 4 3 8 6 2 1 1 2 2 1 1 1 1 1 2 3 2 4 3 3 6 6 6 5 1 2 2 4 3 1 2 0 2 2 2 2 3 3 2 4 5 6 4 5 7 6 6 6 6 7 8 7 6 6 7 6 6 5 5 3 4 3 1 0 0 1 1 3 3 3 3 4 4 4 3 3 3 4 4 3 3
4 4 3 3 4 5 6 8 6 2 1 0 0 1 1 1 2 1 1 2 3 2 3 3 1 1 2 3 3 4 4 3 4 3 2 2 2 1 2 3 1 3 3 3 2 3 2 6 5 4 5 4 6 6 6 7 7 6 6 5 5 5 4 4 3 2 3 3 3 2 1 2 2 3 3 3 3 3 3 4 4 4 5 5 5 5 3
4 4 6 7 8 7 6 3 1 1 1 1 0 1 1 2 0 2 3 2 2 1 2 3 2 1 3 5 4 3 5 3 3 2 1 1 4 2 4 3 1 2 3 1 2 3 2 6 5 5 5 7 6 5 6 6 5 5 5 5 4 3 3 3 5 4 2 3 2 2 3 4 5 4 4 4 4 4 4 4 4 4 5 3 3 4 5
11 8 3 2 3 2 2 1 1 1 0 1 1 1 0 1 0 1 1 2 2 3 1 1 1 2 5 3 4 7 5 1 2 1 1 2 1 1 3 2 2 2 3 3 2 2 7 5 5 6 5 3 4 7 6 5 3 2 4 4 3 2 2 3 4 4 4 4 4 3 3 5 5 4 4 4 5 5 5 4 4 4 4 4 4 5 6
0 2 1 1 1 1 0 1 1 1 0 1 1 3 3 2 2 2 2 2 3 2 3 3 4 5 3 2 3 3 2 3 1 1 3 1 2 4 3 3 4 3 3 2 1 5 5 5 6 5 6 6 6 5 3 3 4 2 4 4 3 2 2 3 3 5 6 4 5 5 5 6 6 6 5 6 6 6 5 5 5 5 5 5 5 6 6
1 2 1 0 1 2 0 1 1 1 3 3 1 1 3 3 4 2 2 3 1 4 3 1 2 2 6 3 3 2 1 1 2 2 2 3 3 3 2 3 3 2 2 3 3 3 4 5 5 5 6 5 5 5 3 2 2 2 1 3 4 3 3 4 5 5 5 6 6 6 6 6 6 6 6 6 6 5 6 6 5 6 6 6 6 6 6
4 1 2 2 3 3 2 1 2 3 2 1 2 3 3 5 4 7 5 2 4 4 4 2 2 4 6 1 2 2 2 1 2 3 1 1 3 3 2 4 0 4 3 3 4 4 4 4 4 2 1 1 3 4 2 1 2 2 2 4 4 4 4 4 5 6 6 5 5 6 6 6 6 6 6 5 6 6 6 5 5 5 5 6 6 6 6
1 2 1 0 2 1 1 3 3 2 4 4 5 6 6 8 7 8 6 4 6 5 5 2 5 4 3 1 1 1 1 1 3 2 1 3 3 1 1 2 4 2 2 3 4 5 3 1 4 2 4 3 1 2 2 2 3 4 4 3 4 5 5 5 6 7 6 5 5 6 6 6 6 5 5 6 6 6 5 5 5 5 6 6 5 5 6
2 2 0 3 3 2 4 2 2 6 5 6 8 7 6 4 4 6 5 6 7 6 5 3 2 3 3 2 1 3 3 3 3 3 3 1 1 2 2 3 4 3 3 3 4 3 2 3 5 4 3 2 2 3 4 5 5 6 6 5 6 6 6 6 6 5 5 5 6 6 5 5 5 5 5 5 5 5 5 5 4 4 5 5 5 5 5
2 2 2 1 1 1 3 3 3 7 6 5 6 6 5 5 6 5 3 2 4 5 3 3 2 2 1 2 2 3 4 5 3 2 2 3 2 2 2 2 2 4 3 1 1 2 3 4 3 2 2 2 3 4 4 4 4 6 6 6 6 5 5 4 4 4 3 3 3 4 4 3 3 3 4 4 5 4 3 2 3 3 3 4 5 5 5
2 1 1 1 2 2 5 4 3 5 6 3 2 2 3 3 7 6 5 5 3 1 1 2 1 0 1 1 1 1 2 2 3 0 3 5 5 3 3 4 3 4 4 1 2 4 3 2 1 2 3 3 4 5 5 5 5 5 5 5 4 4 4 4 3 3 2 2 2 2 2 2 3 4 4 4 3 2 1 3 4 4 3 2 2 2 3
0 1 0 2 3 5 6 6 7 7 9 10 10 9 8 8 8 8 8 5 4 1 2 3 2 2 1 3 2 2 1 2 1 3 3 4 2 2 3 6 4 3 5 4 3 2 2 1 1 3 3 4 4 5 4 4 4 4 4 4 4 3 3 3 3 3 3 2 2 1 2 3 2 2 2 2 2 1 2 3 4 4 4 3 2 2 2
1 2 3 2 3 3 4 5 4 3 5 7 7 8 7 8 10 8 7 5 3 5 3 2 1 2 2 3 2 0 2 1 3 2 4 4 4 3 4 3 4 3 4 3 3 2 1 1 1 2 3 3 5 4 4 4 3 3 4 4 4 4 4 4 3 3 3 2 2 2 1 2 1 1 1 1 2 5 6 6 5 4 4 3 3 2 3
Wind_Direction
313 313 314 315 316 319 320 324 326 331 338 347 350 334 304 306 256 300 308 193 222 261 243 248 212 227 244 319 285 252 266 257 252 235 168 215 206 213 219 208 220 224 239 219 237 223 250 234 233 231 228 243 231 230 179 114 141 235 204 196 190 133 196 186 234 239 268 307 69 112 183 218 215 210 211 192 212 209 218 222 141 205 149 201 168 231 210
309 310 310 312 312 314 319 320 326 328 345 346 339 340 314 297 292 305 108 167 208 235 257 238 237 255 261 261 268 272 272 271 266 230 225 220 167 203 200 212 220 246 204 223 231 183 245 215 232 240 220 247 221 239 248 196 218 200 166 219 145 196 163 206 205 233 228 231 220 222 58 220 216 213 208 208 211 212 225 81 63 227 185 200 186 233 185
304 303 305 307 310 313 318 318 319 326 331 348 345 331 314 293 255 234 289 162 205 242 326 297 305 321 324 307 279 265 241 223 240 250 247 240 246 224 231 228 189 221 209 225 228 203 220 271 220 239 195 239 288 260 238 219 230 229 201 203 152 221 167 185 207 211 221 209 207 212 201 203 203 242 200 216 212 201 148 216 157 232 161 201 215 229 154
300 301 303 303 305 311 317 313 315 319 327 334 339 320 301 320 324 298 270 176 214 240 257 32 3 339 343 312 270 252 255 255 240 226 245 236 238 237 258 237 237 242 226 236 231 235 222 229 253 195 220 228 228 172 195 191 225 237 231 204 172 213 175 194 199 211 223 228 229 170 153 139 219 191 211 184 213 205 203 177 215 219 150 211 212 228 205
301 303 303 302 302 308 310 311 312 317 320 332 326 295 236 305 243 310 322 319 220 153 57 23 8 346 334 286 330 292 268 294 272 196 244 201 225 226 221 228 226 221 233 238 242 234 236 227 239 246 260 260 242 285 317 285 245 258 280 208 193 122 214 196 208 213 221 216 213 200 194 208 205 212 207 202 192 193 207 204 219 121 122 229 204 191 218
300 300 301 300 299 298 304 303 309 314 314 325 309 299 237 244 258 12 4 310 299 325 241 7 326 313 284 267 290 282 289 284 273 281 242 345 223 217 191 225 225 230 221 212 232 224 230 233 241 242 244 266 270 282 253 243 234 329 327 178 181 196 223 206 204 215 221 225 225 199 197 218 210 213 209 202 194 190 205 211 211 159 209 229 184 182 208
297 298 296 297 297 297 295 299 303 314 313 321 299 290 275 265 307 293 347 282 289 285 300 313 295 297 279 270 267 271 278 283 299 299 319 285 207 207 227 208 214 233 266 264 259 219 233 226 223 233 234 227 246 251 254 226 217 29 352 175 230 213 240 212 205 226 226 227 226 199 201 216 223 215 211 203 198 198 203 207 206 193 216 227 209 186 206
300 297 297 296 293 290 287 289 295 308 318 311 283 266 294 319 344 308 359 304 291 291 297 293 307 296 294 282 247 270 283 301 348 322 287 277 261 169 224 236 12 316 271 226 227 228 240 281 267 208 230 239 194 242 238 259 185 40 34 316 62 263 211 159 196 228 234 234 229 213 208 215 226 225 216 208 204 203 204 210 204 196 216 210 212 197 220
293 292 294 296 293 283 278 275 282 287 288 301 304 297 251 294 290 285 304 303 280 274 274 297 311 303 282 244 277 311 299 347 345 301 256 241 264 122 31 13 338 325 288 250 243 258 358 323 271 283 282 263 118 221 121 5 281 61 56 7 321 248 225 100 172 220 242 231 231 222 212 216 224 229 223 210 202 207 205 227 176 189 201 212 209 217 231
294 293 293 293 292 291 284 280 268 241 162 275 277 277 301 285 271 259 258 268 285 304 294 288 280 257 263 323 347 334 313 329 333 316 256 240 256 275 351 5 344 299 273 279 256 348 310 288 277 272 269 263 271 260 262 287 320 288 103 211 288 317 330 342 50 240 245 216 217 239 216 215 235 231 226 215 202 207 199 210 191 201 191 200 205 223 215
295 295 292 290 287 288 290 286 269 217 177 245 250 263 276 303 317 318 264 268 271 252 282 274 249 271 338 347 329 314 300 312 315 286 298 335 308 19 348 325 315 293 276 310 347 310 294 279 270 261 250 249 249 245 236 239 236 234 159 99 272 307 344 329 178 289 281 329 72 127 162 222 229 220 217 210 211 204 214 213 208 217 211 211 205 213 217
291 289 287 283 280 278 280 281 284 229 196 239 239 246 245 226 232 241 270 264 268 282 275 268 276 291 305 306 309 297 301 302 297 294 284 281 282 299 302 295 258 257 24 332 322 315 294 259 247 233 242 244 242 241 227 226 218 200 201 147 164 299 315 325 311 263 283 70 167 206 233 241 233 138 215 214 216 210 211 216 212 211 207 215 230 235 224
292 291 288 286 279 277 280 279 265 250 212 212 200 230 202 186 228 259 277 274 272 282 286 277 272 275 281 288 290 287 290 294 295 288 275 274 287 286 269 283 279 287 337 318 314 313 317 275 251 207 216 214 230 229 230 221 216 184 176 130 106 348 316 309 242 233 226 246 182 244 249 335 339 359 109 81 280 242 223 235 244 236 214 205 217 215 220
292 287 284 286 285 279 276 272 270 252 237 208 221 225 183 188 216 230 225 262 269 258 276 290 284 275 270 266 296 307 307 299 298 286 275 263 272 292 289 264 285 318 303 310 291 277 257 241 243 206 176 177 167 215 216 216 199 193 188 153 117 143 277 245 278 173 263 305 265 279 329 284 193 182 164 174 183 176 185 209 225 204 199 198 212 224 217
289 289 285 281 277 278 277 272 267 265 269 205 237 227 205 197 215 226 242 245 271 279 271 262 268 318 314 297 312 313 314 311 317 306 291 281 270 251 288 312 313 302 302 271 254 234 247 231 234 222 191 192 200 205 124 213 204 233 186 125 106 133 220 259 285 309 267 302 308 298 267 264 219 174 22 335 327 315 323 287 230 149 192 198 206 220 210
294 291 288 287 286 282 278 275 263 249 228 207 219 232 230 200 203 220 231 237 272 282 256 233 262 305 304 300 304 304 299 304 306 307 303 291 291 329 319 329 309 297 274 228 254 235 236 237 207 217 218 214 176 185 196 153 176 77 140 128 109 100 91 208 267 276 264 260 283 284 288 279 38 28 350 341 323 318 283 204 236 173 187 189 198 209 202
290 291 290 285 279 282 280 279 278 266 253 202 221 228 239 189 200 209 220 227 225 245 293 301 305 304 301 292 286 272 277 287 320 331 323 328 330 319 314 328 302 276 315 245 195 194 202 237 246 243 246 197 193 202 98 175 150 142 124 115 108 115 62 319 258 250 234 289 272 279 245 302 6 341 339 330 331 339 204 214 220 168 178 186 188 200 193
288 289 290 291 289 283 282 280 265 249 229 214 221 228 241 172 198 197 222 235 248 264 259 266 272 272 266 292 289 298 300 295 310 310 280 296 299 341 339 334 335 327 321 290 334 210 209 220 223 235 232 308 327 189 226 167 186 167 177 154 149 130 104 18 290 288 305 221 288 272 259 183 9 344 325 324 301 214 206 211 154 24 184 169 190 191 172
290 292 293 294 288 284 281 277 277 271 258 236 228 242 243 198 191 202 231 245 235 253 250 278 294 289 284 292 279 285 286 304 311 308 304 314 353 348 313 260 267 323 348 350 274 109 243 157 84 253 259 192 251 201 2 212 194 76 120 123 110 107 105 139 215 253 268 333 297 285 298 68 346 338 325 308 216 189 213 42 289 285 46 114 165 139 137
288 286 289 288 280 273 273 277 280 278 261 216 182 239 196 175 201 200 205 232 244 261 264 261 263 271 281 284 284 281 285 281 274 277 278 267 353 353 331 158 355 337 312 341 164 136 219 164 178 260 239 219 42 337 251 297 356 104 231 168 168 169 163 163 107 328 41 110 294 301 280 74 2 340 324 124 262 357 10 305 26 27 80 92 83 90 88
293 297 291 286 286 280 277 275 273 272 271 243 211 225 241 190 199 210 221 235 258 276 277 250 247 259 272 268 269 276 277 272 274 257 265 293 325 339 306 30 1 348 337 353 360 348 15 301 118 275 324 280 353 264 193 343 141 70 4 282 29 157 168 126 164 191 180 122 225 281 357 326 342 350 320 346 319 319 292 34 80 39 77 91 92 74 81
293 297 294 289 285 290 288 279 272 269 259 229 196 215 245 214 184 213 227 218 239 246 263 295 301 285 274 269 265 260 260 261 263 266 284 292 270 252 282 303 297 285 294 317 332 307 4 332 270 291 340 26 265 5 319 236 161 344 15 315 175 4 306 197 180 173 171 178 189 324 332 314 352 343 335 328 332 349 40 77 76 78 51 57 79 82 72
296 297 293 289 289 286 282 283 281 273 250 240 221 227 233 206 201 202 216 242 250 264 272 273 258 257 252 250 245 246 246 244 248 248 240 251 276 250 248 256 269 214 241 284 338 288 304 333 312 327 357 2 352 342 90 5 86 11 1 27 351 6 311 166 86 166 151 82 90 283 304 344 2 356 2 0 356 358 9 72 83 60 66 59 74 70 71
290 293 295 297 294 290 284 277 275 277 280 267 229 218 235 247 233 199 227 232 255 289 287 249 244 254 235 253 263 240 236 239 234 236 231 213 238 266 239 234 241 269 219 56 314 316 339 230 263 335 329 254 300 313 328 116 70 337 320 25 341 29 22 351 41 179 137 144 184 127 15 348 10 358 352 22 20 5 12 42 55 66 65 70 64 67 60
297 298 299 295 291 293 286 277 271 275 266 251 242 231 233 238 230 210 228 265 259 286 290 296 252 257 272 278 281 273 256 246 234 224 215 208 217 228 237 140 189 249 326 356 344 302 227 290 273 160 298 105 131 230 279 295 116 12 23 29 344 26 5 326 108 181 285 168 162 129 63 15 357 6 352 16 14 8 20 52 55 55 51 49 50 58 57
301 302 294 281 278 271 272 275 275 273 263 250 242 219 225 241 178 204 228 258 288 263 272 281 297 94 283 292 271 259 260 245 239 232 220 211 212 222 243 287 288 289 325 321 323 299 272 255 255 273 258 235 211 202 196 300 46 63 32 43 13 305 304 10 335 211 33 33 6 134 110 97 320 343 51 37 24 6 19 36 56 56 56 55 50 50 61
303 299 296 294 285 280 274 278 278 282 291 272 258 220 230 242 180 193 205 217 274 276 239 260 282 287 297 290 284 280 260 245 239 233 232 220 216 220 229 245 260 286 298 303 283 256 239 242 245 258 219 273 212 293 136 198 239 94 53 50 359 331 24 344 296 167 179 182 200 156 123 155 213 267 42 79 60 42 47 55 55 52 55 59 64 55 51
302 295 294 295 303 293 289 294 299 286 250 238 242 247 239 241 229 222 219 218 213 252 297 293 295 296 306 278 276 268 256 232 217 215 217 220 216 216 220 228 237 262 266 268 282 223 233 261 246 250 268 187 227 168 155 103 153 109 87 7 349 347 337 335 308 302 62 14 210 338 5 81 135 131 26 4 91 82 65 59 68 61 52 57 67 68 57
316 315 306 308 312 319 317 326 308 272 270 251 258 264 263 242 242 223 221 217 225 249 266 278 277 282 287 316 312 292 273 245 227 215 209 206 207 207 215 217 218 226 241 260 263 275 264 268 278 269 273 108 240 125 180 85 52 47 354 329 317 324 328 304 286 292 306 340 65 28 76 101 88 71 95 23 38 75 71 64 67 67 57 57 60 57 77
319 312 311 308 309 299 317 302 271 286 274 306 273 299 299 31 116 247 221 213 212 225 254 285 302 299 306 294 287 293 290 263 235 213 204 200 198 202 206 201 213 212 217 242 271 276 284 293 262 250 249 154 264 108 94 96 95 61 8 355 338 350 47 29 32 245 343 35 78 81 86 82 74 78 65 58 61 63 63 57 58 79 80 72 72 60 44
335 325 324 314 303 304 258 286 307 313 139 159 17 295 291 317 38 26 178 194 185 211 266 278 275 294 293 248 267 282 285 270 229 210 204 200 200 201 194 179 197 178 202 221 228 244 303 256 284 314 47 33 333 53 45 83 113 43 6 0 7 359 41 15 5 23 36 78 82 80 77 72 86 88 64 50 57 71 74 56 52 65 83 81 73 83 83
331 320 312 312 302 287 284 271 264 244 225 250 237 241 263 296 150 120 156 136 131 223 270 309 311 309 307 285 266 281 284 271 241 192 184 177 198 185 173 184 192 197 209 212 242 288 238 247 265 336 13 352 344 86 70 74 71 11 347 16 20 17 48 38 1 359 38 51 94 84 67 58 39 58 59 20 34 45 55 59 48 49 75 86 82 69 69
323 320 304 305 307 296 298 300 288 262 259 262 272 269 272 270 259 228 234 242 267 263 273 277 279 302 281 305 315 297 233 242 187 208 181 183 164 156 177 194 195 180 200 238 231 243 352 341 253 79 35 332 81 98 76 60 43 13 21 25 35 38 39 59 43 10 21 52 60 82 85 69 51 38 42 44 41 32 26 30 29 40 72 84 80 74 68
339 341 334 322 309 303 300 295 295 270 243 248 282 257 249 225 251 238 195 182 248 264 273 277 298 300 291 305 296 5 14 315 173 190 167 158 158 167 149 153 164 207 167 216 84 287 228 219 23 70 58 45 14 76 66 48 38 61 51 24 0 55 45 58 50 30 22 45 61 69 77 90 82 46 35 42 26 1 360 354 12 39 44 42 51 52 53
338 327 319 306 306 305 301 298 281 264 285 283 264 263 278 232 232 157 164 161 179 215 230 244 235 306 320 320 304 354 6 292 183 181 204 137 227 160 125 137 101 220 113 216 241 353 346 50 333 64 60 21 49 65 60 42 50 56 59 30 9 27 38 51 36 26 36 17 29 55 57 51 59 73 56 30 46 336 349 16 4 3 37 40 35 33 36
334 326 321 319 310 299 282 224 223 238 237 242 236 247 215 261 179 167 193 224 294 296 272 294 283 288 306 313 331 328 342 323 13 257 18 123 162 117 140 115 146 123 115 177 77 39 36 356 276 70 54 67 56 50 65 50 55 56 53 50 29 53 63 59 66 42 25 34 42 54 70 69 60 28 11 322 277 264 250 90 53 59 62 46 39 35 37
330 334 323 305 281 235 253 268 192 230 273 311 302 293 286 227 84 106 148 224 227 236 272 294 286 271 259 308 302 281 327 337 2 269 159 171 154 151 165 174 115 133 151 96 96 81 51 6 80 86 63 71 70 59 60 65 55 51 51 47 48 91 92 85 76 48 50 60 47 47 86 133 175 215 222 198 131 9 46 59 47 58 61 55 44 35 34
331 350 351 354 309 294 268 209 210 322 302 288 291 283 116 166 248 174 195 221 211 189 217 230 259 281 202 239 258 359 319 293 322 325 145 7 143 148 208 145 109 151 111 110 81 18 62 67 84 90 88 76 68 53 53 68 62 57 55 53 49 47 75 96 152 168 134 130 144 161 148 168 141 177 144 96 72 76 49 30 39 44 58 59 48 30 19
28 325 52 54 344 278 303 12 343 327 304 263 222 255 239 181 224 240 214 201 167 234 204 232 260 183 212 240 267 266 247 319 323 296 153 112 229 137 231 144 117 121 96 125 80 317 101 92 99 91 87 83 72 42 40 62 53 50 48 52 47 41 61 80 67 225 201 137 87 322 301 151 135 121 101 115 109 106 99 75 69 57 57 61 50 24 13
360 10 351 327 291 281 316 328 334 317 251 217 158 282 286 128 238 277 52 274 246 230 196 243 226 220 207 241 306 321 168 243 334 8 3 56 338 164 128 69 43 125 124 112 79 315 138 116 122 110 96 77 68 47 42 52 57 42 41 42 44 44 45 57 62 29 50 60 29 226 226 182 147 134 117 97 105 110 103 86 78 70 57 47 41 32 17
11 332 311 311 320 318 309 315 310 227 269 161 316 12 349 255 220 247 212 265 261 240 192 245 179 244 218 238 228 264 300 286 258 268 280 344 34 258 163 95 35 83 95 98 3 328 109 112 108 90 94 69 73 59 62 64 62 60 46 44 56 51 55 80 96 148 168 164 173 177 184 143 107 89 84 84 85 81 73 68 62 46 31 26 22 13 11
300 288 288 291 291 289 298 265 241 348 65 40 48 282 222 286 292 235 219 290 18 328 203 193 255 321 267 191 210 229 270 228 279 261 268 36 333 15 89 110 87 91 102 32 322 284 157 107 106 91 44 51 24 46 65 64 56 58 50 42 46 56 75 99 107 101 103 113 102 85 69 66 66 57 52 55 64 61 57 57 49 34 21 13 359 14 23
273 266 264 291 295 251 251 302 53 22 10 325 3 334 98 310 287 316 315 220 272 286 27 158 306 278 266 255 243 205 250 31 281 282 221 78 300 15 53 60 61 79 79 43 7 136 104 98 99 92 110 115 62 43 35 34 23 31 54 47 44 20 39 85 88 84 72 74 68 59 59 65 62 54 46 52 61 71 68 55 29 8 5 5 17 29 26
75 136 184 225 279 284 71 4 286 257 92 43 28 2 330 332 68 7 332 354 331 328 32 2 5 11 340 128 304 293 245 207 222 243 85 322 49 38 48 43 64 98 122 54 5 69 84 67 69 63 40 61 54 70 71 344 343 359 70 60 54 57 93 97 95 90 80 74 63 58 54 51 55 55 50 47 40 38 36 32 20 2 358 5 24 28 23
296 14 20 355 1 292 347 16 318 65 20 351 312 340 349 323 317 291 270 332 299 293 356 98 287 279 280 264 234 258 315 328 349 57 22 340 72 33 46 79 82 58 48 75 46 56 58 87 86 70 49 33 8 1 359 8 343 351 19 59 53 44 60 72 69 72 69 62 56 57 56 49 53 52 49 44 43 36 35 33 18 10 15 18 26 29 20
40 27 345 35 1 349 35 5 348 12 40 329 318 281 269 254 245 267 279 302 277 289 283 286 296 266 267 251 98 322 333 332 39 45 278 321 75 64 332 269 280 62 42 25 65 68 77 80 69 53 82 125 348 326 301 302 0 0 44 53 31 34 38 49 55 56 52 50 50 53 55 53 51 49 49 41 41 42 43 38 25 18 14 24 25 14 1
98 19 34 124 76 327 36 13 6 344 320 305 279 285 266 269 269 271 272 286 272 266 273 221 230 257 296 1 256 208 18 2 67 333 327 37 66 126 27 30 59 26 50 56 64 80 65 114 126 88 45 42 355 294 346 17 26 35 44 45 38 36 31 39 43 45 41 46 52 54 51 49 46 44 45 50 49 45 38 29 23 17 21 24 14 1 360
29 240 258 43 34 342 358 336 321 290 247 239 259 260 258 258 268 272 228 202 236 259 266 281 245 168 193 196 223 63 33 12 83 60 11 104 110 45 45 45 55 60 27 66 64 71 88 32 48 38 7 316 2 16 20 18 16 28 32 33 34 29 23 25 29 26 23 34 42 47 48 46 47 48 49 50 52 45 36 35 26 26 30 27 19 13 2
77 40 55 112 198 230 247 257 332 307 303 278 279 267 268 254 244 272 322 233 227 245 248 241 317 299 42 11 41 55 42 344 32 24 356 13 68 51 59 52 37 77 39 9 72 17 56 47 42 352 298 333 28 32 24 15 13 23 25 24 21 13 12 15 14 2 358 17 32 39 43 36 35 51 57 55 53 44 13 1 32 40 41 33 29 14 2
51 349 63 8 329 222 236 216 199 271 288 258 255 319 293 320 355 359 5 339 338 304 176 198 268 321 5 353 59 37 77 331 50 58 58 46 57 43 56 71 40 92 127 148 88 75 52 35 352 347 5 9 31 29 20 12 18 21 20 15 16 11 13 360 356 353 346 347 7 23 24 24 33 33 31 33 27 345 344 26 27 22 29 36 27 10 350
176 114 231 240 45 339 339 350 342 330 340 349 350 352 346 347 353 335 346 334 307 223 62 28 347 22 46 30 28 44 5 277 63 35 47 53 14 39 52 94 83 71 95 74 56 53 40 10 351 20 18 27 27 25 18 7 8 14 8 3 3 358 2 9 5 351 346 342 348 13 62 48 24 355 339 321 307 302 52 52 27 11 5 2 350 339 325
346 3 2 327 248 277 297 276 255 259 295 311 332 345 345 351 343 319 318 298 329 51 34 336 15 34 54 53 40 161 251 340 35 8 59 47 5 43 60 56 60 47 51 60 61 62 54 42 34 12 23 20 18 9 3 355 357 19 18 6 357 360 6 12 3 352 334 334 0 9 73 108 60 317 264 279 345 14 16 3 2 3 353 350 352 330 302